This demonstration page uses our WeatherBlox Daily Observations layout. Learn more.

Left ArrowRight Arrow

Hourly Observations for April 21, 2021

Temp ( °F °C ) Dew Point ( °F °C ) Humidity (%) Winds ( mph kmh ) Pressure ( in mb ) Visibility ( mi km ) Precip ( " mm )
12:53 am 00:53 Clear 30 -1.1 25 -3.9 82 82 WNW 8 13 30.29 1026 10 16 0.00 0.00
1:53 am 01:53 Clear 30 -1.1 25 -3.9 82 82 NW 10 17 30.30 1026 10 16 0.00 0.00
2:53 am 02:53 Cloudy 31 -0.6 26 -3.3 82 82 NW 15 24 30.29 1026 10 16 0.00 0.00
3:53 am 03:53 Cloudy 31 -0.6 27 -2.8 85 85 NW 12 19 30.30 1026 10 16 0.00 0.00
4:53 am 04:53 Clear 30 -1.1 26 -3.3 85 85 NNW 12 19 30.31 1027 10 16 0.00 0.00
5:53 am 05:53 Clear 28 -2.2 25 -3.9 88 88 NNW 12 19 30.32 1027 10 16 0.00 0.00
6:53 am 06:53 Sunny 28 -2.2 24 -4.4 85 85 NNW 10 17 30.35 1028 10 16 0.00 0.00
7:53 am 07:53 Sunny 29 -1.7 25 -3.9 85 85 NW 9 15 30.38 1029 10 16 0.00 0.00
8:53 am 08:53 Sunny 32 0 24 -4.4 73 73 NNW 12 19 30.39 1029 10 16 0.00 0.00
9:53 am 09:53 Mostly Sunny 36 2.2 24 -4.4 62 62 NNW 14 22 30.39 1029 10 16 0.00 0.00
10:53 am 10:53 Partly Cloudy 38 3.3 22 -5.6 52 52 N 14 22 30.39 1029 10 16 0.00 0.00
11:53 am 11:53 Mostly Cloudy 39 3.9 19 -7.2 45 45 NNW 15 24 30.38 1029 10 16 0.00 0.00
12:53 pm 12:53 Cloudy 40 4.4 18 -7.8 41 41 NW 13 20 30.36 1028 10 16 0.00 0.00
1:53 pm 13:53 Cloudy with Light Rain 42 5.6 18 -7.8 38 38 NNW 12 19 30.33 1027 10 16 0.00 0.00
2:53 pm 14:53 Cloudy 44 6.7 20 -6.7 38 38 NW 6 9 30.29 1026 10 16 0.00 0.00
3:53 pm 15:53 Partly Cloudy with Light Rain 46 7.8 19 -7.2 34 34 WNW 9 15 30.27 1025 10 16 0.00 0.00
4:53 pm 16:53 Partly Cloudy 47 8.3 17 -8.3 30 30 VRB 3 6 30.23 1024 10 16 0.00 0.00
5:53 pm 17:53 Sunny 47 8.3 17 -8.3 30 30 WNW 5 7 30.22 1024 10 16 0.00 0.00
6:53 pm 18:53 Sunny 47 8.3 18 -7.8 31 31 W 10 17 30.22 1023 10 16 0.00 0.00
7:53 pm 19:53 Sunny 45 7.2 20 -6.7 37 37 WSW 3 6 30.20 1023 10 16 0.00 0.00
8:53 pm 20:53 Clear 42 5.6 20 -6.7 41 41 SSW 5 7 30.20 1023 10 16 0.00 0.00
9:53 pm 21:53 Clear 39 3.9 22 -5.6 50 50 SSW 3 6 30.21 1023 10 16 0.00 0.00
10:53 pm 22:53 Clear 37 2.8 22 -5.6 54 54 SSW 3 6 30.21 1023 10 16 0.00 0.00
11:53 pm 23:53 Clear 35 1.7 22 -5.6 59 59 SSW 5 7 30.21 1023 10 16 0.00 0.00

Powered by AerisWeather